Вернуться в каталог

STARLINK-2751

АктивенСвязьVLEO
NORAD 48685·PAYLOAD·🇺🇸 United States

Запущен May 26, 2021 с Cape Canaveral Space Force Station

Loading…

Ближайшие Пролёты (ближайшие 24 часа)

TLE

СвежийSource: CelesTrak SupGP

Эпоха: Sep 14, 2026, 21:08 UTC

1 48685C 21044AZ  26257.88104167  .00054095  00000+0  17402-2 0  2574
2 48685  53.1582 264.4547 0001260  99.1321 242.8633 15.31662469    15

Отслеживайте STARLINK-2751 в реальном времени с AllMySat

Download on the App Store